Flag for U.S.A. Weather past 2 weeks in Victoria, Texas, U.S.A.

Now
63 °F

Clear.


Feels Like: 63 °F
Forecast: 64 / 86 °F
Wind: 3 mph from East

Location: Victoria Regional Airport

Current Time: Apr 19, 2015 at 5:14:33 AM

Latest Report: Apr 19, 2015 at 4:51 AM


Visibility: 9 mi

Pressure: 29.79 "Hg

Humidity: 100%

Dew point: 63 °F

Location of VictoriaLocation

Historic Weather in Victoria — Graph

°F

Victoria temperature yesterday

Maximum temperature yesterday: 73 °F (at 11:57 AM)
Minimum temperature yesterday: 64 °F (at 11:51 PM)
Average temperature yesterday: 69 °F

Past Weeks' High & Low Weather Summary

 TemperatureHumidityPressure
High85 °F (Apr 13, 4:51 PM)100% (Apr 5, 5:51 AM)30.25 "Hg (Apr 5, 5:51 AM)
Low61 °F (Apr 10, 11:51 AM)56% (Apr 4, 5:51 AM)29.70 "Hg (Apr 13, 3:58 AM)
Average72 °F89%29.95 "Hg
* Reported Apr 4 3:51 AM — Apr 19 3:51 AM, Victoria, Weather by CustomWeather, © 2015

Note: Actual official high and low records may vary slightly from our data, if they occured in-between our weather recording intervals... More about our weather records

Advertising

Victoria weather history for previous 24 hours

 ConditionsComfort  
Time TempWeatherWind HumidityBarometerVisibility
3:51 AM
Sun, Apr 19
63 °FPassing clouds.6 mph100%29.79 "Hg10 mi
2:51 AM64 °FClear.7 mph100%29.81 "Hg10 mi
1:51 AM67 °FOvercast.6 mph97%29.86 "Hg10 mi
12:51 AM65 °FPartly cloudy.14 mph100%29.87 "Hg10 mi
11:51 PM
Sat, Apr 18
64 °FClear.3 mph100%29.81 "Hg10 mi
10:51 PM65 °FClear.5 mph100%29.80 "Hg10 mi
9:51 PM66 °FClear.7 mph96%29.79 "Hg10 mi
8:51 PM67 °FSunny.10 mph93%29.78 "Hg10 mi
7:51 PM67 °FSunny.8 mph87%29.79 "Hg10 mi
6:51 PM71 °FSunny.8 mph73%29.78 "Hg10 mi
5:51 PM73 °FSunny.5 mph66%29.77 "Hg10 mi
4:51 PM67 °FSunny.10 mph87%29.75 "Hg10 mi
3:51 PM70 °FLight rain. Fog.13 mph100%29.80 "Hg5 mi
2:51 PM71 °FPartly sunny.6 mph93%29.82 "Hg10 mi
1:51 PM72 °FMostly cloudy.9 mph91%29.81 "Hg10 mi
12:51 PM73 °FCloudy.7 mph88%29.86 "Hg10 mi
11:57 AM73 °FMore clouds than sun.10 mph88%29.89 "Hg10 mi
10:51 AM70 °FPartly sunny.8 mph97%29.90 "Hg10 mi
9:51 AM69 °FScattered clouds.5 mph96%29.88 "Hg10 mi
8:51 AM69 °FScattered clouds.6 mph96%29.85 "Hg10 mi
7:57 AM67 °FPassing clouds.6 mph100%29.85 "Hg10 mi
6:51 AM67 °FOvercast.8 mph100%29.84 "Hg10 mi
5:51 AM67 °FPassing clouds.6 mph100%29.84 "Hg10 mi
Weather by CustomWeather, © 2015

See weather overviewHow to use our weather pages